| time (UTC) | temp F | wind direction | speed MPH | gust MPH | rain 1hr in | rain 24hr in | rain mn in | humidity % | barometer mb |
| 20260507223040 | 65 | 343 | 1.0 | 4.0 | 0.00 | 0.36 | 0.07 | 63 | 1011.9 |
| 20260507221539 | 64 | 91 | 1.0 | 7.0 | 0.00 | 0.36 | 0.07 | 60 | 1011.9 |
| 20260507220040 | 65 | 316 | 1.0 | 6.0 | 0.00 | 0.36 | 0.07 | 62 | 1011.8 |
| 20260507214538 | 64 | 331 | 0.0 | 2.0 | 0.00 | 0.44 | 0.07 | 62 | 1011.7 |
| 20260507213040 | 63 | 65 | 0.0 | 4.0 | 0.00 | 0.44 | 0.07 | 64 | 1011.5 |
| 20260507211537 | 63 | 29 | 3.0 | 6.0 | 0.00 | 0.44 | 0.07 | 63 | 1011.5 |
| 20260507210037 | 65 | 340 | 4.0 | 7.0 | 0.00 | 0.44 | 0.07 | 63 | 1011.2 |
| 20260507204536 | 63 | 218 | 1.0 | 4.0 | 0.00 | 0.51 | 0.07 | 64 | 1011.3 |
| 20260507203036 | 63 | 7 | 4.0 | 7.0 | 0.00 | 0.51 | 0.07 | 66 | 1011.4 |
| 20260507201539 | 64 | 279 | 1.0 | 6.0 | 0.00 | 0.51 | 0.07 | 68 | 1011.5 |
| 20260507200037 | 64 | 355 | 1.0 | 4.0 | 0.00 | 0.51 | 0.07 | 68 | 1011.5 |
| 20260507194537 | 62 | 302 | 0.0 | 2.0 | 0.00 | 0.57 | 0.07 | 70 | 1011.7 |
| 20260507193031 | 62 | 346 | 2.0 | 6.0 | 0.00 | 0.57 | 0.07 | 70 | 1012.0 |
| 20260507191533 | 61 | 270 | 2.0 | 5.0 | 0.00 | 0.57 | 0.07 | 72 | 1012.0 |
| 20260507190030 | 61 | 259 | 2.0 | 5.0 | 0.00 | 0.57 | 0.07 | 74 | 1012.1 |
| 20260507184527 | 61 | 293 | 0.0 | 3.0 | 0.00 | 0.59 | 0.07 | 74 | 1011.7 |
| 20260507183035 | 61 | 28 | 0.0 | 3.0 | 0.00 | 0.59 | 0.07 | 70 | 1011.9 |
| 20260507181526 | 61 | 114 | 0.0 | 5.0 | 0.00 | 0.59 | 0.07 | 73 | 1012.2 |
| 20260507180030 | 60 | 60 | 3.0 | 5.0 | 0.00 | 0.59 | 0.07 | 70 | 1012.4 |
| 20260507174531 | 62 | 331 | 3.0 | 9.0 | 0.00 | 0.59 | 0.07 | 72 | 1012.5 |
| 20260507173023 | 61 | 56 | 4.0 | 7.0 | 0.00 | 0.59 | 0.07 | 78 | 1012.6 |
| 20260507171528 | 59 | 28 | 2.0 | 7.0 | 0.00 | 0.59 | 0.07 | 77 | 1012.6 |
| 20260507170022 | 58 | 24 | 3.0 | 6.0 | 0.00 | 0.59 | 0.07 | 77 | 1012.6 |
| 20260507164520 | 58 | 31 | 4.0 | 9.0 | 0.00 | 0.59 | 0.07 | 79 | 1012.7 |
| 20260507163019 | 58 | 326 | 3.0 | 7.0 | 0.00 | 0.59 | 0.07 | 80 | 1012.7 |
| 20260507161518 | 57 | 322 | 2.0 | 7.0 | 0.00 | 0.59 | 0.07 | 85 | 1012.7 |
| 20260507160027 | 55 | 345 | 2.0 | 7.0 | 0.00 | 0.59 | 0.07 | 85 | 1012.5 |
| 20260507154517 | 56 | 360 | 4.0 | 11.0 | 0.00 | 0.61 | 0.07 | 85 | 1012.5 |
| 20260507153014 | 55 | 6 | 3.0 | 9.0 | 0.00 | 0.61 | 0.07 | 90 | 1012.1 |
| 20260507151513 | 55 | 32 | 4.0 | 10.0 | 0.00 | 0.61 | 0.07 | 92 | 1012.4 |
| 20260507150014 | 55 | 344 | 4.0 | 9.0 | 0.00 | 0.61 | 0.07 | 90 | 1012.5 |
| 20260507144511 | 55 | 332 | 4.0 | 9.0 | 0.00 | 0.74 | 0.07 | 91 | 1012.3 |
| 20260507143010 | 55 | 19 | 3.0 | 7.0 | 0.00 | 0.74 | 0.07 | 91 | 1012.1 |
| 20260507141506 | 55 | 313 | 1.0 | 9.0 | 0.00 | 0.74 | 0.07 | 91 | 1011.8 |
| 20260507140006 | 55 | 58 | 2.0 | 7.0 | 0.00 | 0.74 | 0.07 | 91 | 1011.7 |
| 20260507134504 | 55 | 349 | 1.0 | 5.0 | 0.00 | 0.89 | 0.07 | 91 | 1011.7 |
| 20260507133002 | 55 | 320 | 1.0 | 5.0 | 0.00 | 0.89 | 0.07 | 92 | 1011.3 |
| 20260507131503 | 55 | 33 | 2.0 | 6.0 | 0.00 | 0.89 | 0.07 | 93 | 1011.2 |
| 20260507130000 | 55 | 358 | 2.0 | 6.0 | 0.01 | 0.89 | 0.07 | 94 | 1011.3 |
| 20260507124559 | 55 | 344 | 2.0 | 5.0 | 0.01 | 1.09 | 0.07 | 94 | 1011.4 |
| 20260507123113 | 55 | 25 | 1.0 | 5.0 | 0.01 | 1.09 | 0.07 | 95 | 1011.3 |
| 20260507121558 | 54 | 29 | 2.0 | 4.0 | 0.01 | 1.09 | 0.07 | 95 | 1011.1 |
| 20260507120057 | 54 | 35 | 2.0 | 4.0 | 0.00 | 1.08 | 0.06 | 95 | 1011.1 |
| 20260507114559 | 54 | 42 | 1.0 | 3.0 | 0.00 | 1.09 | 0.06 | 95 | 1011.3 |
| 20260507113053 | 54 | 323 | 2.0 | 5.0 | 0.00 | 1.09 | 0.06 | 95 | 1010.8 |
| 20260507111553 | 54 | 24 | 2.0 | 5.0 | 0.01 | 1.09 | 0.06 | 95 | 1010.3 |
| 20260507110054 | 54 | 39 | 0.0 | 5.0 | 0.01 | 1.09 | 0.06 | 94 | 1010.5 |
| 20260507104557 | 54 | 43 | 1.0 | 3.0 | 0.01 | 1.09 | 0.06 | 94 | 1010.5 |
| 20260507103050 | 55 | 6 | 1.0 | 3.0 | 0.01 | 1.09 | 0.06 | 94 | 1010.4 |
| 20260507101549 | 55 | 42 | 2.0 | 3.0 | 0.01 | 1.08 | 0.05 | 94 | 1010.5 |
| 20260507100055 | 55 | 344 | 0.0 | 2.0 | 0.01 | 1.08 | 0.05 | 94 | 1010.6 |
| 20260507094548 | 55 | 8 | 0.0 | 4.0 | 0.01 | 1.08 | 0.05 | 94 | 1010.2 |
| 20260507093045 | 55 | 37 | 1.0 | 3.0 | 0.01 | 1.08 | 0.05 | 94 | 1009.9 |
| 20260507091545 | 55 | 48 | 0.0 | 4.0 | 0.00 | 1.07 | 0.04 | 94 | 1010.1 |
| 20260507090055 | 55 | 48 | 1.0 | 4.0 | 0.02 | 1.07 | 0.04 | 94 | 1010.3 |
| 20260507084550 | 55 | 38 | 0.0 | 5.0 | 0.03 | 1.07 | 0.04 | 95 | 1010.5 |
| 20260507083042 | 55 | 31 | 1.0 | 4.0 | 0.03 | 1.07 | 0.04 | 95 | 1010.1 |
| 20260507081550 | 55 | 42 | 2.0 | 7.0 | 0.04 | 1.07 | 0.04 | 95 | 1009.8 |
| 20260507080038 | 56 | 348 | 1.0 | 3.0 | 0.02 | 1.05 | 0.02 | 96 | 1010.1 |
| 20260507074537 | 56 | 67 | 2.0 | 5.0 | 0.01 | 1.04 | 0.01 | 96 | 1009.8 |
| 20260507073035 | 57 | 27 | 1.0 | 7.0 | 0.01 | 1.04 | 0.01 | 96 | 1009.8 |
| 20260507071536 | 57 | 34 | 1.0 | 6.0 | 0.00 | 1.03 | 0.00 | 96 | 1009.6 |
| 20260507070036 | 57 | 242 | 0.0 | 3.0 | 0.00 | 1.03 | 0.00 | 96 | 1010.0 |
| 20260507064552 | 58 | 265 | 0.0 | 3.0 | 0.00 | 1.03 | 0.00 | 96 | 1010.2 |
| 20260507063034 | 58 | 281 | 1.0 | 3.0 | 0.00 | 1.03 | 0.00 | 95 | 1010.4 |
| 20260507061530 | 58 | 260 | 0.0 | 5.0 | 0.00 | 1.03 | 0.00 | 95 | 1009.8 |
| 20260507060033 | 58 | 262 | 2.0 | 8.0 | 0.00 | 1.03 | 0.00 | 95 | 1009.7 |
| 20260507054526 | 58 | 288 | 3.0 | 9.0 | 0.00 | 1.03 | 0.00 | 95 | 1010.2 |
| 20260507053025 | 58 | 287 | 5.0 | 12.0 | 0.00 | 1.03 | 0.00 | 95 | 1010.3 |
| 20260507051523 | 59 | 265 | 5.0 | 12.0 | 0.00 | 1.03 | 0.00 | 95 | 1010.3 |
| 20260507050034 | 59 | 268 | 3.0 | 6.0 | 0.00 | 1.03 | 0.00 | 96 | 1010.2 |
| 20260507044517 | 60 | 261 | 2.0 | 4.0 | 0.00 | 1.03 | 0.00 | 96 | 1010.5 |
| 20260507043016 | 60 | 285 | 1.0 | 2.0 | 0.00 | 1.03 | 0.00 | 96 | 1010.1 |
| 20260507041523 | 60 | 285 | 0.0 | 1.0 | 0.00 | 1.03 | 0.00 | 96 | 1009.9 |
| 20260507040013 | 60 | 285 | 0.0 | 2.0 | 0.00 | 1.03 | 0.00 | 96 | 1010.4 |
| 20260507034512 | 60 | 293 | 0.0 | 3.0 | 0.01 | 1.03 | 1.03 | 96 | 1010.1 |
| 20260507033011 | 60 | 293 | 0.0 | 3.0 | 0.01 | 1.03 | 1.03 | 96 | 1010.3 |
| 20260507031510 | 61 | 281 | 0.0 | 3.0 | 0.01 | 1.03 | 1.03 | 96 | 1010.7 |
| 20260507030018 | 61 | 262 | 1.0 | 4.0 | 0.02 | 1.03 | 1.03 | 96 | 1010.6 |
| 20260507024514 | 61 | 208 | 0.0 | 1.0 | 0.01 | 1.02 | 1.02 | 96 | 1010.5 |
| 20260507023008 | 61 | 257 | 0.0 | 2.0 | 0.03 | 1.02 | 1.02 | 96 | 1011.1 |
| 20260507021508 | 61 | 238 | 0.0 | 2.0 | 0.03 | 1.02 | 1.02 | 96 | 1011.0 |
| 20260507020007 | 61 | 237 | 0.0 | 2.0 | 0.02 | 1.01 | 1.01 | 96 | 1010.8 |
| 20260507014511 | 61 | 237 | 1.0 | 4.0 | 0.04 | 1.01 | 1.01 | 95 | 1010.5 |
| 20260507013010 | 62 | 258 | 2.0 | 7.0 | 0.05 | 0.99 | 0.99 | 95 | 1010.7 |
| 20260507011504 | 63 | 248 | 2.0 | 6.0 | 0.08 | 0.99 | 0.99 | 96 | 1010.3 |
| 20260507010007 | 63 | 268 | 1.0 | 3.0 | 0.12 | 0.99 | 0.99 | 96 | 1010.1 |
| 20260507004501 | 63 | 152 | 3.0 | 9.0 | 0.13 | 0.97 | 0.97 | 96 | 1009.1 |
| 20260507003001 | 64 | 224 | 0.0 | 5.0 | 0.11 | 0.94 | 0.94 | 96 | 1011.0 |
| 20260507001501 | 64 | 93 | 1.0 | 6.0 | 0.08 | 0.91 | 0.91 | 96 | 1010.6 |
| 20260507000002 | 64 | 149 | 0.0 | 2.0 | 0.04 | 0.87 | 0.87 | 96 | 1009.9 |
| 20260506234601 | 65 | 241 | 0.0 | 3.0 | 0.01 | 0.84 | 0.84 | 96 | 1009.7 |
| 20260506233100 | 65 | 237 | 1.0 | 3.0 | 0.02 | 0.83 | 0.83 | 96 | 1009.7 |
| 20260506231611 | 65 | 260 | 0.0 | 1.0 | 0.05 | 0.83 | 0.83 | 96 | 1009.6 |
| 20260506230121 | 65 | 251 | 0.0 | 2.0 | 0.08 | 0.83 | 0.83 | 96 | 1009.6 |
| 20260506224559 | 66 | 283 | 1.0 | 2.0 | 0.11 | 0.83 | 0.83 | 96 | 1009.2 |